Welcome to the New NWS' Forecast!
Most changes are behind the scenes, but click here for differences you might notice.

Regional Weather Roundup (RWR)

Issued by National Weather Service (NWS)

                            
839 
ASUS46 KSEW 141610
RWRWA 

WASHINGTON REGIONAL WEATHER ROUNDUP
NATIONAL WEATHER SERVICE SEATTLE WA
900 AM PDT SAT JUL 14 2018

NOTE:"FAIR" INDICATES FEW OR NO CLOUDS BELOW 12,000 FEET WITH NO 
SIGNIFICANT WEATHER AND/OR OBSTRUCTIONS TO VISIBILITY.

WAZ507-509-555>559-141700-
SEATTLE, TACOMA, EVERETT, AND VICINITY
  
CITY           SKY/WX    TMP DP  RH WIND       PRES   REMARKS
EVERETT        SUNNY     63  52  67 N7        30.17S                  
BOEING FIELD   SUNNY     68  51  54 NW6       30.15S                  
RENTON         SUNNY     69  53  56 N5        30.14F                  
SEATAC AIRPORT SUNNY     69  50  50 VRB5      30.16S                  
JBLM-MCCHORD   SUNNY     65  57  77 CALM      30.16S                  
PUYALLUP       FAIR      66  55  68 CALM      30.16S                  
BREMERTON      SUNNY     67  51  56 NE12      30.16S                  
JBLM-FT LEWIS  SUNNY     64  56  75 CALM      30.15S                  
TACOMA NARROWS SUNNY     61  53  75 SE3       30.16F                  
$$
 
WAZ001-503-506-510-514-515-141700-
NORTH INTERIOR
  
CITY           SKY/WX    TMP DP  RH WIND       PRES   REMARKS
BELLINGHAM     SUNNY     68  53  58 N5        30.16S                  
FRIDAY HARBOR  SUNNY     69  52  54 N10       30.18R                  
EASTSOUND      SUNNY     63  57  82 NW8       30.17S                  
PORT ANGELES   SUNNY     68  49  50 E10       30.18R                  
EDIZ HOOK      FAIR      61  51  67 E7        30.18R                  
PORT TOWNSEND  FAIR      66  52  59 N8        30.17S                  
NAS WHIDBEY    SUNNY     65  52  62 W6        30.21R                  
ARLINGTON      SUNNY     64  53  67 CALM      30.17S                  
BURLINGTON     SUNNY     66  57  72 VRB3      30.17S                  
$$
 
WAZ020-022-039-040-504-511-512-141700-
SOUTHWEST INTERIOR
  
CITY           SKY/WX    TMP DP  RH WIND       PRES   REMARKS
SHELTON        SUNNY     65  53  65 CALM      30.13F                  
OLYMPIA        SUNNY     63  51  65 CALM      30.15F                  
CHEHALIS       FAIR      63  55  77 NE5       30.16S                  
KELSO          SUNNY     62  53  72 VRB6      30.15F                  
VANCOUVER      SUNNY     65  55  70 W7        30.13S                  
SCAPPOOSE, OR  SUNNY     66  52  60 N7        30.13S                  
PORTLAND, OR   SUNNY     65  53  65 NW6       30.13F                  
$$
 
WAZ021-516-517-141700-
WASHINGTON COAST
  
CITY           SKY/WX    TMP DP  RH WIND       PRES   REMARKS
FORKS          SUNNY     61  53  75 CALM      30.15S                  
HOQUIAM        SUNNY     60  55  83 S3        30.16S HAZE             
ASTORIA, OR    SUNNY     62  55  77 CALM      30.15S                  
$$
 
WAZ019-023-024-040-567>569-141700-
CASCADE MOUNTAINS AND COLUMBIA GORGE
  
CITY           SKY/WX    TMP DP  RH WIND       PRES   REMARKS
STAMPEDE PASS  SUNNY     66  45  46 CALM      30.24R                  
TROUTDALE, OR  SUNNY     65  54  67 VRB5      30.12F                  
HOOD RIVER, OR SUNNY     72  54  53 E3        30.10S                  
THE DALLES, OR SUNNY     77  52  41 NW8       30.07R                  
$$

WAZ026-027-041>044-520-521-141700-
EAST SLOPES
  
CITY           SKY/WX    TMP DP  RH WIND       PRES   REMARKS
OMAK           SUNNY     76  36  23 N23G29    30.17R                  
WENATCHEE      SUNNY     76  45  33 SW7       30.13R                  
ELLENSBURG     SUNNY     76  48  37 W3        30.14R                  
YAKIMA         SUNNY     79  50  36 VRB6      30.12R                  
SUNNYSIDE ARPT SUNNY     79  49  35 N21G26    30.08F                  
YAKIMA TC        N/A     81  40  23 NE13      30.10S                  
$$

WAZ028-034-035-141700-
COLUMBIA BASIN
  
CITY           SKY/WX    TMP DP  RH WIND       PRES   REMARKS
EPHRATA        SUNNY     80  36  20 N23G33    30.12R                  
MOSES LAKE     SUNNY     80  39  23 N25G31    30.11R                  
PASCO          SUNNY     81  55  40 N10       30.08R                  
RICHLAND ARPT  SUNNY     86  46  24 N15       30.07R                  
HERMISTON, OR  SUNNY     81  51  35 W6        30.08R                  
$$

WAZ036>038-141700-
NORTHEAST WASHINGTON
  
CITY           SKY/WX    TMP DP  RH WIND       PRES   REMARKS
SPOKANE GEIGER MOSUNNY   78  40  25 N13       30.10R                  
SPOKANE FELTS  SUNNY     78  45  30 W9        30.08R                  
FAIRCHILD AFB  SUNNY     76  39  26 N15       30.11R                  
COEURDALENE,ID SUNNY     73  48  41 S7        30.10R                  
DEER PARK      SUNNY     77  42  28 NW14      30.09R                  
$$

WAZ029>033-141700-
SOUTHEAST WASHINGTON
  
CITY           SKY/WX    TMP DP  RH WIND       PRES   REMARKS
PULLMAN        SUNNY     74  48  39 W12       30.13S                  
LEWISTON, ID   SUNNY     82  47  29 CALM      30.07R                  
WALLA WALLA    SUNNY     80  48  32 SW8       30.09S                  
PENDLETON, OR  SUNNY     80  46  30 NW7       30.11R                  
$$